RH
39 43 45 46 46 43 42 41 42 43 43 38 33 29 29 33 36 36 36 35 35 34 35 35 31 24 22 22 22 23 25 25 25 26 27 27 27 27 27 26 26 27
41 42 44 48 50 49 47 47 46 44 43 39 34 31 32 35 37 37 36 37 37 36 35 36 32 26 22 22 23 23 25 26 26 26 29 29 29 28 28 28 28 30
39 40 45 49 50 49 50 52 53 51 46 40 36 35 36 37 39 39 39 39 38 37 37 37 34 29 24 22 24 24 25 26 26 26 29 30 29 30 30 29 29 30
39 42 45 47 47 48 49 52 56 57 51 43 38 38 37 36 39 44 48 46 42 40 41 41 36 31 27 25 25 24 24 25 25 26 28 29 29 30 30 30 30 30
40 43 44 45 45 46 48 51 57 61 56 46 42 43 41 36 37 44 52 56 53 48 46 47 42 33 29 29 27 25 24 24 24 25 26 27 29 29 30 30 31 31
39 42 42 43 42 43 46 49 56 61 59 50 44 44 44 41 39 41 50 58 59 55 51 49 47 39 32 31 32 30 27 25 24 26 26 26 28 29 30 32 32 31
37 38 37 40 42 43 46 51 57 60 59 54 51 48 48 48 44 43 51 56 55 54 51 47 48 44 36 35 37 35 31 27 27 28 28 29 30 31 32 33 34 34
41 39 37 38 40 43 49 56 61 60 56 55 55 50 50 53 49 45 50 53 49 49 48 45 47 48 43 41 41 39 34 30 30 31 31 32 33 34 35 35 36 37
43 42 41 43 48 53 58 58 57 57 55 55 56 52 52 55 52 48 51 49 46 48 49 47 47 49 50 48 43 41 37 33 33 34 35 35 35 36 36 36 37 39
46 48 48 52 57 60 62 61 61 63 62 58 58 58 58 57 53 52 55 52 47 48 51 50 48 48 52 52 46 42 40 36 35 36 38 38 38 38 37 37 38 38
55 58 55 54 55 55 59 64 67 68 67 62 60 61 60 58 55 53 57 58 54 51 53 53 50 49 53 54 49 45 42 39 38 39 40 40 38 38 37 38 38 35
65 65 60 57 55 55 58 64 67 70 69 65 60 58 56 57 58 55 55 61 61 57 57 57 53 51 53 53 50 47 45 42 41 43 43 42 39 38 38 39 39 36
59 57 57 57 54 53 55 59 63 66 66 63 60 57 53 54 60 58 55 60 64 62 60 60 57 55 55 54 52 51 47 45 46 47 47 45 43 42 42 41 40 37
49 49 54 56 54 54 57 59 59 60 59 57 55 53 51 52 59 63 61 62 66 66 63 62 62 60 58 57 55 53 50 47 48 50 50 48 47 47 47 45 43 41
52 53 58 63 62 61 64 66 65 64 63 59 53 52 52 53 59 66 67 67 70 69 64 64 66 63 60 58 57 56 54 50 50 53 54 53 51 51 51 49 48 46
56 57 58 64 69 66 65 69 73 73 73 69 62 57 55 57 63 69 71 70 73 72 66 65 67 65 62 61 60 62 60 56 55 57 58 56 55 55 56 53 50 48
54 54 54 59 69 72 70 72 76 76 76 75 67 60 58 61 66 70 73 73 75 73 69 68 70 68 65 65 65 68 67 61 60 61 60 60 60 60 59 55 49 48
50 51 53 56 68 78 76 73 69 63 64 68 66 61 60 62 63 68 75 77 78 75 72 71 72 70 70 70 69 71 70 65 64 65 64 64 64 64 61 56 52 54
51 52 55 57 64 70 70 66 63 57 56 62 66 63 62 65 65 68 75 80 80 78 76 75 73 73 75 74 72 71 70 68 69 69 68 68 68 68 68 63 56 55
55 56 57 59 60 62 62 59 60 61 59 61 66 67 68 71 70 71 80 83 78 76 78 77 75 75 77 77 76 73 69 69 73 75 74 74 73 73 73 66 54 50
53 54 56 58 57 58 58 56 56 60 60 61 65 67 70 75 76 77 84 82 72 72 76 75 74 76 78 79 79 75 72 72 76 77 77 78 79 78 74 63 52 51
50 49 51 52 52 52 54 53 53 58 60 60 61 63 69 77 77 77 80 77 71 72 74 72 74 79 81 81 80 79 78 77 77 78 79 81 80 77 70 59 51 51
50 49 49 49 49 49 50 50 50 53 54 56 61 69 76 77 73 72 76 76 74 74 73 72 76 81 82 81 81 83 83 81 80 80 80 80 76 69 63 57 50 48
52 52 51 50 47 46 47 50 51 52 55 63 74 82 81 74 70 71 74 74 73 73 74 75 80 84 85 84 85 86 84 83 82 81 81 81 75 64 58 54 50 48
54 54 53 50 47 46 49 54 56 56 60 68 76 76 71 67 67 69 71 72 71 70 72 76 81 84 85 86 88 87 84 84 84 83 85 85 74 61 55 53 50 49
54 54 53 51 48 49 53 55 55 57 61 64 65 63 61 62 66 68 68 68 67 67 71 79 86 87 87 89 89 88 87 87 87 87 88 81 68 58 57 55 52 50